This demonstration page uses our WeatherBlox Daily Observations layout. Learn more.

Left ArrowRight Arrow

Hourly Observations for January 20, 2015

Temp ( °F °C ) Dew Point ( °F °C ) Humidity (%) Winds ( mph kmh ) Pressure ( in mb ) Visibility ( mi km ) Precip ( " mm )
12:51 am 00:51 Clear 42 5.6 33 0.6 71 71 SE 6 9 30.01 1016 10 16 0.00 0.00
1:51 am 01:51 Clear 42 5.6 32 0 68 68 Calm 30.01 1016 10 16 0.00 0.00
2:51 am 02:51 Clear 40 4.4 31 -0.6 70 70 SE 6 9 30.02 1017 10 16 0.00 0.00
3:51 am 03:51 Clear 38 3.3 31 -0.6 76 76 ESE 6 9 30.01 1016 10 16 0.00 0.00
4:51 am 04:51 Clear 37 2.8 31 -0.6 79 79 S 5 7 30.01 1016 10 16 0.00 0.00
5:51 am 05:51 Clear 37 2.8 30 -1.1 76 76 ESE 5 7 30.03 1017 10 16 0.00 0.00
6:51 am 06:51 Clear 35 1.7 29 -1.7 78 78 ESE 6 9 30.06 1018 10 16 0.00 0.00
7:51 am 07:51 Sunny 36 2.2 30 -1.1 79 79 SE 6 9 30.07 1018 10 16 0.00 0.00
8:51 am 08:51 Sunny 43 6.1 31 -0.6 63 63 Calm 30.07 1018 10 16 0.00 0.00
9:51 am 09:51 Sunny 49 9.4 32 0 52 52 SSE 6 9 30.08 1019 10 16 0.00 0.00
10:51 am 10:51 Sunny 55 12.8 32 0 42 42 SE 5 7 30.06 1018 10 16 0.00 0.00
11:51 am 11:51 Sunny 62 16.7 31 -0.6 31 31 SE 6 9 30.02 1017 10 16 0.00 0.00
12:51 pm 12:51 Sunny 64 17.8 30 -1.1 28 28 Calm 29.98 1015 10 16 0.00 0.00
1:51 pm 13:51 Sunny 68 20 28 -2.2 22 22 WNW 5 7 29.93 1014 10 16 0.00 0.00
2:51 pm 14:51 Sunny 69 20.6 28 -2.2 22 22 VRB 3 6 29.91 1013 10 16 0.00 0.00
3:51 pm 15:51 Sunny 68 20 24 -4.4 19 19 VRB 3 6 29.91 1013 10 16 0.00 0.00
4:51 pm 16:51 Sunny 68 20 25 -3.9 20 20 WNW 6 9 29.90 1012 10 16 0.00 0.00
5:51 pm 17:51 Clear 61 16.1 30 -1.1 31 31 WNW 7 11 29.90 1013 10 16 0.00 0.00
6:51 pm 18:51 Clear 57 13.9 29 -1.7 34 34 NW 6 9 29.92 1013 10 16 0.00 0.00
7:51 pm 19:51 Clear 56 13.3 28 -2.2 34 34 N 6 9 29.91 1013 10 16 0.00 0.00
8:51 pm 20:51 Clear 51 10.6 31 -0.6 46 46 ESE 6 9 29.91 1013 10 16 0.00 0.00
9:51 pm 21:51 Clear 49 9.4 32 0 52 52 E 6 9 29.90 1012 10 16 0.00 0.00
10:51 pm 22:51 Clear 48 8.9 32 0 54 54 ESE 7 11 29.89 1012 10 16 0.00 0.00
11:51 pm 23:51 Clear 47 8.3 31 -0.6 54 54 SE 3 6 29.87 1012 10 16 0.00 0.00

Powered by AerisWeather